Wind_Speed
44 47 48 46 45 41 41 37 38 36 25 28 33 33 33 37 36 37 39 38 37 28 22 23 21 24 19 19 18 12 15 17 7 7 8 14 10 13 19 22 21 18 16
49 52 53 55 51 50 46 43 44 42 39 41 41 42 42 39 39 39 44 44 43 38 35 26 26 30 30 28 20 23 27 14 11 10 16 20 17 20 22 22 26 28 28
52 53 55 56 57 56 53 49 53 49 49 53 56 50 52 52 53 50 47 52 46 46 43 36 38 38 35 38 36 29 25 26 25 27 25 23 30 24 25 26 25 28 31
48 49 50 50 50 54 56 56 55 58 57 58 61 64 60 61 62 61 58 50 50 52 49 53 50 45 47 50 50 43 48 50 50 47 41 40 35 34 32 30 27 37 29
47 49 49 50 50 47 48 47 51 56 60 64 68 70 72 71 69 66 68 60 60 57 58 59 64 52 59 54 53 54 55 52 49 48 50 48 47 48 45 39 37 38 43
43 43 46 46 45 48 49 50 48 50 59 61 69 74 76 72 75 69 67 69 69 72 74 76 70 65 62 59 59 64 60 58 62 61 62 59 58 59 56 52 51 53 48
47 48 48 49 49 44 48 51 50 50 58 63 63 66 73 75 71 74 69 71 71 69 69 73 71 72 72 75 74 70 71 73 72 72 72 72 69 71 69 63 63 61 66
49 50 51 51 53 54 51 49 57 58 60 64 64 67 69 73 72 71 73 69 71 70 68 74 82 83 86 83 84 86 83 82 77 79 84 81 79 83 75 74 80 71 76
60 58 57 59 61 61 59 59 57 55 65 67 72 72 73 77 76 77 79 78 76 76 76 77 78 80 85 85 77 83 88 90 93 93 91 91 95 94 93 93 87 88 91
66 67 66 68 67 68 68 69 67 67 65 62 69 79 79 81 80 80 86 85 85 87 86 88 88 89 90 92 96 100 97 102 105 105 107 105 108 109 106 105 102 101 102
64 64 66 68 63 62 61 60 63 68 68 69 69 70 70 82 90 90 92 95 97 96 96 97 96 97 100 102 101 103 108 111 110 109 108 111 116 108 105 105 104 103 93
60 59 60 61 61 60 60 60 61 62 63 65 69 74 75 76 77 84 93 96 101 103 107 107 110 112 111 110 114 117 115 118 119 117 118 115 108 108 105 104 102 97 95
63 65 65 64 63 62 61 60 61 61 61 61 62 63 67 70 73 76 82 89 95 101 103 102 104 107 111 111 114 112 114 109 106 106 104 106 103 105 101 99 96 94 90
68 68 66 64 62 60 59 59 59 59 60 60 61 62 64 66 69 71 74 77 81 84 86 87 93 98 100 100 100 102 104 107 109 108 106 104 105 104 103 100 96 94 92
59 58 57 56 55 56 56 57 59 60 62 63 65 66 68 71 74 76 77 78 78 80 81 83 86 89 91 94 96 98 99 101 103 104 103 103 99 97 96 97 95 95 94
52 52 52 53 52 53 55 57 59 60 60 62 64 66 68 69 71 73 74 76 77 79 79 81 85 88 91 92 93 95 96 97 97 98 99 101 102 101 98 97 94 90 84
55 54 54 53 53 53 54 55 56 58 59 61 63 63 66 66 70 72 73 75 78 80 81 84 88 91 93 94 95 97 98 99 98 96 93 90 87 84 81 80 78 75 74
53 55 57 58 58 59 59 60 61 62 64 67 69 69 71 72 75 78 79 80 82 85 87 90 91 89 87 87 87 85 83 81 79 76 72 70 67 64 61 60 60 60 64
48 48 45 45 49 54 59 63 66 68 70 71 74 76 77 76 76 75 74 72 71 76 77 74 67 64 64 64 64 64 63 63 61 61 59 57 53 49 49 50 51 54 57
54 53 51 51 56 60 59 58 61 64 65 64 65 65 63 64 65 68 68 67 64 58 56 54 52 52 54 55 56 58 57 55 54 52 51 48 46 45 46 47 48 49 51
54 55 57 61 66 67 64 60 58 58 58 60 60 59 57 58 58 55 50 46 44 43 44 46 46 46 47 46 46 48 46 46 46 44 42 43 42 41 41 42 43 44 45
59 62 63 70 75 72 64 58 57 57 56 53 51 50 49 42 39 39 37 36 38 39 39 40 41 40 40 41 41 40 39 39 38 37 35 37 38 38 37 38 38 38 40
62 67 75 78 79 71 63 57 54 52 49 46 42 37 33 31 30 29 29 32 33 32 31 31 34 36 36 36 36 35 32 32 31 31 31 33 35 35 35 35 35 34 34
69 77 81 82 74 62 54 50 46 41 35 31 29 26 24 22 23 26 25 25 26 26 27 29 30 32 31 31 30 28 27 26 25 24 25 28 29 29 30 29 25 26 28
78 81 81 73 60 52 46 41 35 30 26 23 20 17 17 21 22 20 19 21 21 22 24 25 27 27 27 26 24 22 20 19 17 18 18 21 24 25 24 21 21 24 25
81 83 72 60 53 47 41 35 29 24 18 14 12 15 17 16 13 12 12 16 20 23 25 26 25 24 23 22 19 16 14 13 11 11 14 16 17 19 20 21 21 20 19
Wind_Direction
255 254 256 259 261 261 256 257 265 266 261 260 256 244 235 232 233 225 228 230 236 222 214 211 231 250 237 236 261 235 246 278 283 334 351 356 347 342 303 287 303 303 295
259 258 258 261 263 262 257 249 252 254 248 252 250 242 245 249 239 260 253 243 237 243 233 242 256 275 254 227 233 244 269 261 246 269 290 302 310 315 319 316 290 297 301
268 264 261 260 261 260 258 257 248 248 250 244 253 253 248 248 257 261 269 251 248 247 242 259 271 269 260 231 261 237 260 273 263 278 282 285 293 304 290 306 307 296 314
275 272 270 267 262 260 260 256 252 250 246 250 248 253 250 252 259 265 268 262 250 243 242 255 262 267 273 261 256 265 278 283 280 275 278 280 287 298 282 291 281 299 290
287 285 282 278 274 268 259 254 252 249 245 250 249 251 254 256 257 260 261 259 257 252 254 257 261 258 263 249 257 266 275 278 266 281 281 278 289 291 296 283 278 288 294
290 288 289 287 285 274 268 263 256 252 246 246 242 244 248 253 256 255 254 253 257 255 257 258 258 255 252 253 256 261 267 267 272 272 279 281 277 282 289 286 289 284 285
288 290 291 290 289 282 270 263 256 253 246 240 242 245 247 248 254 255 255 256 257 259 261 258 257 259 256 254 256 262 267 267 270 273 276 271 279 283 279 281 279 282 287
291 291 289 289 287 286 284 272 261 253 248 249 248 248 248 248 251 256 260 261 259 258 255 256 258 260 261 258 261 263 269 272 270 267 275 273 275 275 273 277 279 274 280
287 286 286 290 291 286 280 280 276 268 258 252 251 252 249 250 251 253 254 257 260 260 260 256 258 263 266 266 261 261 263 264 267 266 266 270 272 272 274 272 273 275 274
281 280 281 285 287 284 280 277 276 273 272 266 257 251 252 251 249 248 249 254 255 257 258 258 259 262 263 261 264 266 266 266 265 265 268 270 271 268 270 271 270 271 271
286 286 284 286 286 284 281 279 275 272 270 269 266 263 260 255 249 251 250 248 248 251 256 257 257 258 261 262 261 263 265 265 267 267 268 269 270 271 270 272 274 273 272
287 287 287 286 285 284 283 280 277 274 271 266 264 263 262 261 259 255 254 255 255 254 254 256 256 258 258 258 260 263 263 263 263 266 267 268 271 272 271 270 268 268 268
291 289 288 287 285 283 280 278 275 274 274 271 268 265 262 261 259 259 258 259 260 261 261 261 262 264 263 263 263 265 269 269 268 269 270 271 269 270 269 268 268 269 267
292 290 289 287 285 283 280 279 278 276 275 274 272 271 269 268 266 265 263 263 264 265 265 265 264 263 264 265 264 265 266 268 269 268 264 262 263 265 267 268 268 267 266
295 293 291 288 286 284 283 281 280 278 277 275 274 273 273 272 272 272 272 272 270 269 268 268 266 265 263 262 262 263 264 265 266 268 270 271 270 270 269 269 269 267 266
300 298 296 294 291 288 285 283 282 282 280 278 276 275 274 273 273 274 274 274 273 272 272 272 272 272 271 270 270 270 270 271 272 273 274 275 274 273 272 271 268 266 263
302 300 297 295 294 292 290 288 286 285 283 282 281 280 278 277 277 277 277 277 277 278 279 278 276 275 275 276 275 275 276 276 275 274 274 274 274 272 268 264 262 260 257
307 302 298 295 293 292 290 288 287 286 286 285 285 284 283 284 283 283 283 283 281 281 279 278 280 280 279 277 276 277 276 275 275 274 274 272 269 266 263 259 256 251 248
318 315 315 313 313 305 296 291 287 285 285 285 284 284 284 284 284 284 284 282 279 278 280 282 281 280 279 278 278 276 275 273 271 271 269 267 265 262 257 254 251 249 247
321 317 312 314 317 316 304 297 291 286 284 283 282 281 282 286 285 283 281 281 282 280 280 282 281 281 281 281 281 280 280 278 275 270 267 268 266 261 256 253 250 249 247
317 318 313 306 312 315 311 301 294 292 290 288 287 288 288 286 285 286 284 284 284 283 283 285 286 284 282 283 283 281 281 279 275 270 264 261 259 256 253 251 250 249 246
318 318 317 317 317 317 313 306 299 296 296 295 295 293 291 292 289 289 289 291 290 290 292 290 292 291 290 288 286 285 283 279 273 267 259 252 249 248 246 246 247 244 243
318 318 317 318 320 317 312 307 303 301 300 298 294 294 293 291 289 290 295 295 296 299 300 305 305 302 299 297 295 292 287 280 274 267 256 245 240 239 239 242 242 241 244
320 320 321 322 320 316 313 310 305 303 301 299 298 296 293 291 298 306 309 305 309 313 314 311 314 312 308 304 300 295 287 281 274 265 254 243 235 232 232 237 240 238 235
321 322 321 321 319 317 316 313 311 305 305 303 299 293 296 309 316 321 323 329 331 330 324 322 318 316 313 310 305 297 290 280 269 255 242 230 224 224 226 219 220 220 218
324 325 324 323 322 320 317 314 309 307 305 301 296 304 317 329 344 1 30 36 24 14 8 359 343 334 330 324 317 308 296 283 268 243 227 218 217 216 205 200 198 197 197
Height
10913 10912 10912 10912 10915 10918 10919 10920 10918 10921 10922 10921 10922 10922 10923 10922 10922 10923 10922 10921 10921 10919 10920 10922 10925 10926 10926 10925 10925 10926 10928 10931 10933 10932 10928 10928 10930 10934 10933 10930 10927 10924 10922
10901 10900 10902 10902 10905 10907 10910 10911 10911 10911 10915 10913 10910 10912 10914 10914 10915 10914 10912 10913 10912 10912 10912 10913 10915 10916 10918 10916 10916 10916 10919 10922 10924 10926 10927 10927 10928 10929 10926 10924 10921 10922 10921
10888 10890 10891 10893 10893 10893 10895 10897 10899 10900 10900 10899 10899 10900 10899 10900 10901 10901 10902 10902 10902 10901 10900 10901 10904 10907 10908 10905 10905 10904 10907 10911 10913 10914 10916 10918 10918 10918 10919 10919 10918 10917 10917
10874 10874 10873 10874 10876 10876 10877 10878 10882 10884 10885 10881 10884 10882 10883 10885 10885 10887 10888 10891 10890 10889 10888 10888 10891 10892 10894 10895 10893 10890 10890 10895 10898 10901 10903 10903 10905 10906 10907 10909 10911 10912 10910
10858 10857 10856 10857 10858 10859 10860 10860 10862 10864 10865 10865 10867 10868 10867 10869 10869 10870 10873 10875 10876 10876 10875 10874 10874 10878 10876 10876 10877 10876 10878 10880 10882 10882 10886 10890 10891 10894 10896 10898 10899 10903 10903
10846 10844 10842 10841 10840 10840 10841 10843 10844 10844 10844 10845 10848 10849 10849 10849 10848 10852 10853 10856 10857 10857 10859 10858 10857 10861 10861 10860 10862 10863 10864 10863 10864 10868 10869 10871 10874 10879 10881 10885 10885 10885 10888
10836 10833 10830 10828 10826 10825 10824 10823 10823 10825 10826 10825 10825 10828 10831 10832 10829 10829 10833 10833 10833 10833 10834 10837 10839 10839 10841 10843 10844 10845 10844 10843 10843 10847 10852 10854 10855 10855 10860 10865 10870 10870 10870
10826 10822 10819 10816 10813 10810 10808 10807 10806 10805 10805 10807 10808 10808 10809 10814 10813 10812 10811 10814 10815 10815 10813 10813 10816 10816 10818 10820 10819 10820 10822 10822 10823 10828 10828 10830 10832 10832 10834 10839 10844 10849 10852
10813 10809 10805 10800 10797 10795 10792 10789 10789 10789 10789 10787 10787 10788 10788 10790 10792 10792 10792 10793 10793 10793 10792 10790 10789 10791 10793 10793 10794 10794 10794 10793 10798 10801 10803 10801 10804 10805 10806 10809 10810 10820 10821
10798 10794 10789 10785 10781 10775 10772 10769 10768 10767 10766 10767 10766 10767 10767 10766 10767 10768 10768 10768 10771 10771 10769 10768 10765 10769 10769 10763 10761 10764 10767 10765 10768 10771 10774 10775 10773 10776 10777 10780 10780 10787 10791
10781 10777 10773 10768 10763 10755 10753 10748 10746 10743 10742 10740 10741 10741 10743 10742 10743 10744 10742 10743 10745 10744 10742 10741 10740 10743 10738 10736 10734 10735 10735 10735 10737 10738 10738 10740 10741 10741 10741 10745 10746 10748 10754
10763 10758 10753 10749 10745 10739 10734 10730 10726 10723 10722 10719 10718 10715 10716 10716 10714 10717 10716 10715 10716 10716 10715 10716 10714 10712 10709 10709 10705 10702 10704 10702 10703 10707 10707 10707 10702 10702 10706 10709 10714 10720 10724
10745 10739 10733 10728 10722 10718 10714 10710 10706 10703 10699 10697 10695 10693 10691 10690 10689 10690 10687 10686 10685 10684 10684 10686 10684 10680 10679 10680 10677 10672 10669 10668 10671 10673 10674 10672 10669 10670 10670 10671 10675 10681 10686
10724 10717 10711 10706 10700 10696 10692 10688 10685 10683 10679 10676 10673 10672 10669 10666 10665 10664 10663 10661 10660 10656 10654 10655 10652 10651 10648 10647 10645 10643 10642 10639 10634 10636 10643 10645 10642 10644 10644 10641 10645 10647 10650
10701 10696 10690 10685 10680 10676 10672 10668 10665 10662 10658 10655 10652 10651 10648 10644 10640 10636 10634 10633 10632 10629 10626 10624 10620 10618 10618 10616 10613 10610 10608 10606 10605 10602 10602 10604 10608 10610 10610 10606 10608 10611 10615
10685 10679 10673 10667 10664 10659 10654 10650 10646 10641 10638 10634 10630 10627 10623 10621 10616 10612 10609 10605 10602 10597 10597 10593 10587 10581 10579 10578 10577 10575 10573 10573 10572 10570 10567 10563 10564 10564 10565 10563 10565 10568 10574
10669 10663 10657 10651 10646 10641 10637 10632 10626 10620 10616 10611 10607 10604 10600 10598 10591 10586 10583 10580 10573 10569 10566 10561 10555 10549 10545 10543 10540 10538 10537 10534 10532 10532 10530 10528 10526 10526 10526 10526 10529 10534 10540
10652 10646 10639 10634 10628 10622 10617 10611 10606 10601 10594 10587 10582 10579 10574 10570 10564 10559 10556 10553 10548 10540 10536 10529 10522 10518 10515 10512 10508 10506 10503 10502 10499 10497 10498 10497 10499 10500 10500 10500 10502 10507 10511
10641 10632 10625 10617 10610 10602 10596 10589 10583 10577 10571 10567 10561 10554 10549 10545 10537 10533 10529 10525 10520 10512 10508 10504 10498 10491 10488 10486 10482 10480 10478 10476 10475 10475 10476 10476 10477 10479 10479 10480 10483 10487 10490
10631 10621 10611 10604 10596 10588 10578 10569 10562 10555 10550 10544 10538 10532 10530 10525 10516 10508 10503 10501 10497 10492 10487 10484 10479 10475 10471 10467 10463 10458 10456 10454 10454 10454 10454 10455 10455 10457 10458 10461 10465 10468 10473
10619 10611 10602 10591 10581 10570 10558 10548 10540 10534 10527 10522 10518 10513 10508 10503 10494 10488 10483 10481 10479 10475 10471 10467 10464 10459 10454 10450 10446 10441 10437 10434 10433 10433 10435 10437 10439 10441 10443 10446 10451 10454 10460
10603 10593 10583 10571 10558 10547 10536 10527 10519 10513 10507 10502 10496 10490 10485 10482 10478 10473 10470 10468 10464 10461 10458 10454 10449 10444 10439 10434 10429 10425 10421 10418 10417 10417 10419 10421 10424 10427 10430 10434 10438 10443 10448
10588 10576 10564 10552 10537 10525 10514 10507 10500 10494 10489 10483 10479 10474 10472 10469 10466 10464 10462 10457 10453 10450 10445 10440 10435 10430 10424 10420 10414 10410 10406 10404 10403 10403 10404 10406 10410 10414 10419 10423 10428 10433 10438
10573 10559 10545 10530 10518 10506 10497 10490 10483 10479 10474 10470 10467 10465 10462 10461 10459 10457 10453 10450 10445 10441 10436 10431 10425 10419 10413 10408 10403 10399 10395 10393 10392 10392 10394 10396 10400 10405 10410 10415 10420 10426 10431
10556 10540 10525 10512 10501 10491 10484 10476 10471 10467 10464 10461 10459 10457 10456 10455 10452 10450 10447 10444 10440 10435 10430 10424 10418 10412 10405 10400 10395 10390 10387 10385 10384 10385 10387 10390 10394 10398 10404 10409 10415 10421 10426
10537 10522 10507 10496 10487 10478 10471 10466 10462 10459 10456 10455 10453 10452 10451 10449 10448 10447 10446 10443 10439 10434 10428 10421 10413 10406 10399 10393 10389 10384 10382 10380 10380 10381 10383 10387 10391 10396 10400 10407 10413 10418 10423